Regional Weather Roundup
Issued by NWS Newport/Morehead, NC

Home | Current Version | Previous Version | Text Only | Print | Product List | Glossary On
Versions: 1 2 3 4 5 6 7 8 9 10 11 12 13 14 15 16 17 18 19 20 21 22 23 24 25 26 27 28 29 30 31 32 33 34 35 36 37 38 39 40 41 42 43 44 45 46 47 48 49 50
000
ASUS42 KMHX 240025
RWRMHX
WEATHER ROUNDUP FOR EASTERN NORTH CAROLINA
NATIONAL WEATHER SERVICE NEWPORT/MOREHEAD CITY NC
700 PM EST THU NOV 23 2017

NOTE: "FAIR" INDICATES FEW OR NO CLOUDS BELOW 12,000 FEET
WITH NO SIGNIFICANT WEATHER AND/OR OBSTRUCTIONS TO VISIBILITY

NCZ015>017-031-032-045>047-102-103-240100-
NORTH COAST

CITY           SKY/WX    TMP DP  RH WIND       PRES   REMARKS
EDENTON        CLOUDY    41  38  90 CALM      30.10R
ELIZABETH CITY CLOUDY    42  37  82 E5        30.09R
KITTY HAWK     CLOUDY    42  36  76 CALM      30.07R
MANTEO         MOCLDY    44  36  75 N5        30.08S

$$

NCZ045>047-081-094-103-104-240100-
CENTRAL COAST

CITY           SKY/WX    TMP DP  RH WIND       PRES   REMARKS
FRISCO         CLOUDY    50  43  77 NE6       30.06S

$$

NCZ095-097-098-100-101-240100-
SOUTHERN COAST

CITY           SKY/WX    TMP DP  RH WIND       PRES   REMARKS
BEAUFORT       CLOUDY    48  42  80 NE8       30.06S
CEDAR ISLAND   NOT AVBL
JACKSONVILLE   CLOUDY    47  41  80 NE7       30.07R
PINEY ISLAND   NOT AVBL
WILMINGTON     CLOUDY    47  40  76 N6        30.06S


$$

NCZ011>013-027>030-043-044-078>080-089-090>093-098-240100-
COASTAL PLAIN

CITY           SKY/WX    TMP DP  RH WIND       PRES   REMARKS
AHOSKIE        CLOUDY    37  33  87 CALM      30.10R
CLINTON        CLOUDY    44  39  82 CALM      30.08R
ELIZABETHTOWN  NOT AVBL
GOLDSBORO      CLOUDY    43  35  72 NE5       30.07R
GREENVILLE     CLOUDY    41  36  81 CALM      30.10S
HAVELOCK       NOT AVBL
KENANSVILLE    MOCLDY    43  37  81 CALM      30.08S
KINSTON        CLOUDY    43  37  81 CALM      30.08S
NEW BERN       CLOUDY    45  40  82 NE6       30.09R
RICHLANDS      CLOUDY    44  40  85 NE3       30.08R
ROCKY MOUNT    CLOUDY    39  35  86 CALM      30.09R
WASHINGTON     CLOUDY    42  38  86 CALM      30.09S
WHITEVILLE     CLOUDY    46  37  73 E7        30.05F

$$

AMZ130-135-150-152-154-156-158-170-250-252-270-ANZ085-086-088-633-658-670-240100-
MARINE OBSERVATIONS

STATION/POSITION TIME  TEMP    WIND        PRES    WAVE   SWELL
                       AIR SEA DIR/SP/G            HT/PER HT/PER
                 (UTC) (F)     (DEG/KT/KT) (MB)    (FT/S) (FT/S)
CHESAPEAKE LIGHT NOT AVBL
64 E VA BEACH    2350   46 60  330/  8/ 12 1018.9    5/ 9   5/ 9
DUCK             0000   46 58  360/  4/  8 1018.2
2 E DUCK         0000      60                N/A     4/ 9   2/11
OREGON INLET     0000   47 58  360/  6/  7 1018.3
13E OREGON INLT  2348      63                N/A     5/10   5/10
HATTERAS CG      0000   50 58   40/  7/ 10 1017.5
DIAMOND BUOY     0010   56 71   30/ 10/ 14 1017.7
CAPE LOOKOUT     0000           40/ 15/ 16 1017.6
BEAUFORT LAB     0000   49 59   40/  4/  9 1017.7
30 SE NEW RVR IN 0008   56 67   60/ 14/ 17 1017.4
30 SE NEW RVR IN 0000      67                N/A     5/ 8   2/11
27 SE WRIGHTSVLE 0008   57 70   60/ 17/ 25 1016.8
5 SE WRIGHTSVLE  0008   53 63   40/ 12/ 17 1017.1
225 S CAPE HAT   2350   70 77   90/ 19/ 23 1012.5    8/ 8   5/11
41 SE CHARLESTON 0010   64 75   40/ 23/ 27 1013.4

$$




USA.gov is the U.S. government's official web portal to all federal, state and local government web resources and services.